RH
63 63 72 77 64 74 86 88 88 88 86 90 91 90 86 86 90 91 89 87 91 90 93 95 91 83 83 89 92 93 90 83 70 70 69 70 80 78 82 85 82 84 88
55 63 70 84 86 85 83 86 89 89 87 87 91 90 90 88 91 90 90 90 92 93 98 95 90 83 86 85 88 87 87 84 73 72 74 81 85 89 94 91 79 72 85
51 57 66 71 87 93 95 96 95 92 91 90 92 92 93 92 91 91 91 91 93 95 96 93 88 84 90 92 88 84 76 71 80 83 86 88 96 95 93 90 89 90 74
51 54 67 71 80 92 94 96 96 96 95 92 94 94 93 93 95 97 98 97 96 96 94 91 87 86 90 91 86 83 78 80 83 88 91 95 96 93 94 97 98 94 92
43 47 62 67 76 89 93 93 95 96 97 97 96 96 95 94 96 98 98 98 98 98 96 94 93 93 93 89 84 85 81 81 86 90 97 99 99 100 96 99 98 99 96
44 51 57 61 72 84 90 91 94 95 96 97 98 98 99 99 100 100 99 98 97 97 98 98 97 98 97 99 94 93 77 74 83 91 98 98 96 96 98 98 99 97 98
45 49 52 58 70 81 89 91 92 96 98 98 99 99 99 99 100 100 100 97 97 97 96 97 96 92 92 90 94 92 91 92 84 88 92 94 96 96 96 95 95 96 98
41 44 49 53 63 100 97 96 99 100 100 99 99 99 99 99 100 100 100 97 97 96 94 93 91 93 88 86 82 84 84 84 86 87 90 95 95 96 94 94 94 96 97
38 40 46 52 58 81 100 100 100 100 100 100 100 100 100 100 100 100 100 100 100 100 96 92 90 92 94 88 84 91 95 100 91 92 92 92 93 93 93 97 100 97 91
43 41 42 51 56 66 86 100 100 100 100 100 100 100 100 100 100 100 99 99 99 100 99 97 97 91 93 91 88 91 98 99 99 100 100 98 97 93 88 94 97 89 96
49 49 51 53 57 64 90 100 100 100 100 100 100 99 99 99 99 100 98 97 98 99 99 99 99 96 97 95 93 95 100 100 100 100 100 100 100 100 100 99 96 94 88
46 46 52 59 60 88 100 100 100 100 100 100 100 100 100 99 100 100 98 97 98 96 99 99 98 97 97 97 98 98 98 98 100 100 99 99 99 99 100 100 98 100 98
56 55 52 65 77 95 100 100 100 100 100 100 100 100 100 100 100 100 100 99 99 98 97 98 97 97 98 99 98 98 98 99 99 99 99 99 99 97 96 99 99 99 99
61 64 75 85 86 100 100 100 100 100 100 100 100 100 100 100 100 100 100 99 99 98 98 97 96 97 94 97 99 99 99 99 98 99 99 96 95 98 98 99 99 99 99
81 83 83 87 95 100 100 99 99 99 98 99 99 99 100 100 100 99 98 98 98 97 98 98 98 99 99 99 99 98 99 99 99 99 98 94 96 95 96 95 94 92 90
80 88 94 99 100 100 100 100 100 100 100 100 100 98 99 98 99 98 98 97 97 97 96 98 98 97 96 96 97 98 98 99 99 97 95 91 88 87 87 89 90 88 90
83 84 87 100 100 100 100 100 100 100 100 100 100 98 98 99 98 98 96 95 94 92 93 95 95 94 93 95 95 97 98 98 91 89 90 91 88 85 86 86 87 89 93
80 84 88 90 98 99 100 100 100 100 100 100 100 99 97 98 98 96 95 94 98 92 88 92 94 94 95 97 98 98 98 92 90 89 89 87 87 88 86 80 87 94 96
92 90 91 89 90 96 99 99 99 99 99 99 99 99 98 98 97 95 93 92 94 94 90 92 94 98 98 98 99 96 91 91 91 89 89 83 90 85 89 89 85 90 83
97 98 98 98 97 98 98 98 99 98 98 99 99 98 98 98 98 98 98 96 94 93 94 96 98 98 99 98 95 93 95 93 89 88 93 90 90 84 83 88 91 82 83
98 98 98 98 98 98 98 98 98 98 98 98 98 98 97 96 97 97 98 98 98 98 98 98 99 100 99 96 93 92 91 90 87 87 88 86 89 85 86 91 88 82 90
98 98 99 99 99 100 99 98 98 98 98 98 98 98 96 96 98 98 98 98 99 98 98 98 98 98 95 91 90 90 89 91 88 88 89 87 82 85 83 83 82 84 88
98 98 99 100 100 99 99 100 99 99 99 98 98 97 98 98 98 98 98 98 98 99 98 98 98 98 94 90 87 85 88 86 83 82 86 85 85 84 82 82 80 82 86
99 99 99 100 100 99 99 99 99 99 98 98 98 98 98 98 98 98 98 99 99 99 98 98 98 94 92 93 91 90 87 87 82 86 84 85 84 83 82 78 79 85 90
98 99 99 99 99 99 99 99 99 99 99 98 98 98 98 98 98 98 98 98 98 98 99 98 94 93 92 92 90 85 89 86 84 87 85 84 86 85 80 79 77 84 91
98 98 99 99 99 99 98 98 99 98 98 98 98 98 97 96 97 98 98 98 98 98 98 96 94 94 92 91 88 88 88 88 88 87 81 80 82 79 79 78 84 85 82
Wind_Speed
10 10 11 9 6 4 5 6 7 6 7 7 9 12 15 15 14 13 15 14 14 14 12 12 12 10 7 5 3 1 1 2 4 2 3 5 3 6 4 4 5 4 3
8 7 8 9 11 9 8 7 6 7 7 8 7 10 13 14 13 16 16 14 14 15 11 11 11 9 11 10 8 10 10 4 4 8 4 3 4 3 5 5 2 3 3
8 8 8 8 8 7 7 6 9 7 7 7 7 10 11 12 13 14 14 14 14 13 15 15 14 14 12 9 10 9 7 4 4 5 4 2 3 2 4 3 3 3 2
5 7 7 7 6 6 6 6 8 9 7 7 7 8 8 7 7 6 7 9 9 9 10 12 14 15 12 11 10 10 8 8 4 4 3 3 3 1 3 1 2 2 3
3 4 4 5 5 5 6 6 7 8 8 7 6 6 6 8 7 9 8 8 8 6 7 10 10 10 13 11 9 8 9 7 7 5 3 2 3 2 3 2 1 2 3
6 6 5 5 5 3 3 4 6 7 8 7 8 5 5 4 9 13 12 10 10 11 11 9 9 12 11 9 9 9 9 13 9 6 4 3 4 5 3 3 1 3 3
6 7 7 6 6 5 4 3 4 5 6 7 7 6 6 5 12 14 15 10 11 11 12 10 8 8 13 10 12 12 9 10 6 7 7 4 4 5 6 4 2 2 1
6 7 7 7 7 3 4 4 3 3 4 5 6 6 5 3 7 12 15 10 10 11 12 15 14 15 14 16 13 11 7 8 6 6 7 6 6 6 5 4 3 2 1
6 6 7 7 7 4 5 4 3 2 3 3 5 6 5 6 6 7 1 5 6 6 11 11 13 13 17 19 15 13 10 8 13 19 16 15 14 11 8 3 2 2 2
6 7 8 8 8 7 7 5 3 2 3 3 5 6 6 7 6 11 8 6 6 5 6 4 8 10 16 14 13 14 11 9 10 9 8 9 9 9 10 4 3 3 1
8 8 8 7 8 8 5 4 3 2 2 4 5 5 5 5 5 9 8 7 8 8 7 7 5 18 13 14 14 8 6 8 8 7 8 5 5 5 3 3 3 3 4
12 12 11 8 7 5 6 4 3 3 3 4 4 4 2 4 6 8 9 5 8 9 8 8 11 22 21 19 12 22 20 10 5 6 7 6 5 4 3 3 3 2 1
11 13 13 10 7 8 8 6 3 4 3 3 3 4 2 1 1 6 7 12 10 9 8 16 23 21 24 18 17 15 16 8 6 6 6 5 4 4 4 2 2 4 1
13 13 10 8 7 6 5 6 6 5 5 4 4 5 3 1 2 3 6 8 15 13 19 15 13 13 13 16 14 9 7 8 8 7 6 5 5 4 3 3 3 3 2
8 6 8 6 8 8 9 9 9 7 7 7 7 7 6 6 7 10 11 10 10 13 13 11 11 11 8 10 9 8 8 7 6 5 6 6 4 4 2 2 3 2 2
13 8 5 4 2 3 4 2 2 5 10 10 9 9 6 5 13 16 16 16 20 21 11 8 8 7 11 11 10 8 7 9 7 7 5 4 5 6 5 3 2 3 4
14 13 9 6 5 5 5 7 6 2 6 11 12 11 11 9 17 19 22 26 26 18 11 10 10 9 9 8 9 9 9 7 8 6 5 6 6 6 5 3 3 5 4
15 16 11 10 7 8 8 8 8 8 8 6 8 9 15 18 20 24 27 24 12 9 10 12 12 9 8 9 9 8 8 8 7 6 6 7 6 6 6 4 5 5 2
13 11 11 11 10 8 8 9 8 11 8 6 3 5 13 21 22 28 31 13 13 10 9 9 9 9 9 8 9 9 9 7 8 7 6 7 5 6 5 5 6 5 6
12 16 13 10 10 10 10 11 10 10 9 9 9 9 10 13 13 13 10 10 9 9 9 10 9 9 8 9 10 10 10 8 8 7 7 6 5 6 6 6 3 5 5
9 9 12 9 9 9 8 10 9 9 9 9 8 10 18 14 13 12 7 8 9 10 10 10 9 9 8 10 10 9 10 8 8 8 7 6 6 6 6 4 4 5 7
9 8 8 7 5 3 5 6 7 8 9 9 8 9 18 9 10 9 8 9 9 9 9 10 9 10 9 10 11 11 11 11 9 8 8 7 7 6 6 6 5 6 7
7 7 5 3 1 3 3 3 5 6 8 9 10 11 10 9 9 10 10 10 10 10 10 11 9 10 8 8 10 10 11 11 10 9 10 8 7 6 7 7 6 6 4
7 5 4 3 2 2 3 5 5 8 9 9 10 10 10 10 11 13 12 10 10 10 10 11 10 12 12 10 8 8 8 9 8 8 10 9 8 7 6 7 6 5 4
7 6 5 4 3 4 5 6 6 7 8 9 10 10 11 12 12 12 11 10 11 10 11 11 10 14 14 15 13 13 13 12 9 9 7 9 9 8 7 6 7 5 4
7 7 6 5 5 5 5 6 7 8 8 9 11 12 12 13 12 11 11 11 11 10 11 9 12 15 15 12 15 16 14 11 10 11 8 8 8 8 7 8 8 5 5
Wind_Direction
27 17 7 350 349 343 250 223 208 201 205 202 188 197 205 205 200 200 209 212 212 211 207 195 183 158 169 151 139 65 250 169 143 100 110 127 106 124 107 75 61 75 20
43 24 15 10 12 8 356 342 280 220 213 212 201 199 203 206 198 203 209 210 211 209 192 176 175 166 162 165 161 174 160 208 137 133 128 121 109 113 117 89 54 53 350
17 11 12 10 2 356 8 343 323 291 245 219 196 198 200 202 201 204 207 209 209 201 186 181 172 166 169 188 191 189 153 142 120 137 143 117 107 144 79 47 41 357 332
23 8 357 350 352 3 348 342 342 333 305 242 200 195 197 189 185 183 184 193 202 191 183 179 169 171 182 184 188 182 157 137 124 118 107 114 121 108 100 150 350 310 302
5 350 318 321 331 355 354 348 331 325 328 329 285 212 203 201 191 172 170 169 168 163 162 160 171 176 155 182 170 185 168 144 143 148 122 111 139 104 153 204 177 282 294
323 308 300 307 280 270 285 329 336 330 329 338 323 287 228 206 184 173 168 175 165 168 170 164 157 158 155 171 169 206 187 155 156 144 155 147 178 135 141 151 138 15 349
327 310 308 309 291 268 257 291 321 319 320 319 316 330 293 234 188 187 173 174 173 175 164 157 155 152 141 136 116 102 77 80 123 133 147 153 152 152 142 137 145 113 261
318 313 297 294 300 280 274 264 295 300 299 291 293 293 282 276 256 208 183 172 177 173 174 167 164 160 159 145 139 120 112 92 96 102 111 113 117 122 123 131 131 128 296
276 291 296 295 289 242 252 249 230 238 286 269 281 282 264 268 208 147 135 151 150 160 158 165 158 166 160 152 142 132 115 101 86 94 99 103 103 105 103 99 93 91 153
256 256 265 267 267 249 235 220 224 217 267 302 295 274 258 257 214 183 152 130 126 126 120 143 147 152 153 155 142 141 136 130 121 109 96 98 102 110 104 92 89 106 21
238 244 241 247 255 250 196 179 192 212 292 302 296 294 264 246 222 197 169 166 157 147 148 140 125 132 120 107 106 96 68 111 109 102 109 113 113 104 99 97 111 122 103
251 255 243 236 236 182 170 181 184 176 227 282 282 285 284 245 210 197 172 158 150 145 142 124 121 112 108 100 90 115 112 111 111 123 131 138 130 118 125 148 157 130 100
242 241 247 237 207 175 171 173 164 186 181 213 233 255 258 260 210 162 138 132 116 114 124 119 111 110 108 104 115 113 117 131 140 154 141 133 128 149 148 119 142 135 165
270 249 231 220 211 194 179 173 170 179 191 199 200 225 218 193 149 131 134 116 116 116 126 123 128 128 126 128 124 130 136 141 157 147 128 130 155 138 162 157 150 161 156
309 304 296 265 207 204 205 192 192 201 183 190 204 201 191 197 204 172 158 154 149 145 136 135 137 134 152 129 130 149 142 132 139 121 132 173 150 129 86 82 86 133 113
294 294 284 286 206 220 229 315 298 192 200 203 187 191 211 187 164 172 156 150 137 140 133 135 126 140 136 144 154 155 143 140 134 136 161 142 120 114 105 81 99 122 104
293 290 278 248 227 194 181 177 208 301 219 220 216 201 181 173 172 164 151 146 145 143 146 145 148 155 146 170 161 149 141 134 135 153 139 130 125 124 125 131 143 112 94
285 278 273 273 250 233 219 197 190 197 197 200 215 194 177 172 171 159 150 142 153 159 159 158 155 158 162 157 138 126 130 142 140 133 125 128 125 126 127 141 104 116 119
285 275 266 264 265 246 219 209 199 220 204 185 139 178 170 163 165 162 160 161 167 161 158 157 147 148 147 144 127 130 136 137 129 134 124 134 131 132 111 99 116 125 121
279 270 258 258 254 246 226 218 209 199 193 182 180 175 158 149 164 171 171 161 161 154 152 143 139 135 140 129 136 130 125 134 133 133 128 140 121 117 124 115 113 129 113
283 280 275 268 259 240 211 204 196 186 181 176 173 169 165 163 168 171 168 162 148 144 140 134 131 121 132 134 125 127 124 135 141 140 135 124 120 126 110 118 140 121 104
286 281 277 272 254 188 195 192 179 173 166 158 155 156 158 154 153 152 150 134 123 123 124 128 127 129 141 136 131 140 139 138 149 142 126 118 124 118 128 124 122 107 105
299 293 283 267 261 134 133 148 152 148 144 148 151 147 151 139 138 134 129 125 124 124 123 118 122 117 131 129 128 141 147 143 149 138 126 131 132 137 128 126 124 118 121
322 329 337 354 38 87 113 122 123 133 137 142 143 139 136 129 130 126 122 123 121 122 119 115 120 133 126 121 123 115 124 128 138 124 126 132 132 125 120 123 125 127 120
346 354 5 18 41 76 94 100 111 120 128 133 127 124 121 122 121 118 123 123 116 115 117 121 124 121 121 126 127 124 117 122 123 121 122 122 121 124 125 129 137 125 110
5 11 16 28 48 65 82 97 105 113 116 116 117 116 117 116 112 114 110 111 112 115 117 119 115 119 115 116 117 120 126 124 125 115 118 123 126 133 137 137 127 122 130